Showing default

COSMOS 2256, 22691

Orbit data source: Space-Track

COSMOS 2256, 22691 is a payload satellite owned by VKS (CIS) in LEO that was launched on Thu, 24 Jun 1993 UTC via a TSIKLON-3 launch vehicle from the Plesetsk Missile And Space Complex (PKMTR). Payload-class satellites include a variety of spacecraft equipped with specific instruments for various scientific and technological missions. These include communications satellites like Starlink; space stations such as the ISS; scientific satellites like the Hubble; Earth observation satellites from companies like Planet Labs, Umbra, and HawkEye 360; GPS; miniature CubeSats for education and research; and military/defense satellites.

Loading next visibility...
Identifier
22691, 1993-038E
Orbit
LEO
Country
Flag of CISCIS
Related business
Manufacturer
NPO PM
Mission
Defense Communications
Bus & Motor
STRELA-3, Unknown motor
Mass
225 kg wet, 225 kg dry
Launch date (UTC)
1993-06-24 (32 years ago)
Launch vehicle
TSIKLON-3
Launch site
Plesetsk Missile And Space Complex (PKMTR)
Object type
Payload
Rocket body
Debris
Shape & HBR
Cyl, 0.8 m
Radar Cross Section
1.257 m², Large (>1 m²)

Expand to show TLE details & history
Last TLE update: 14 hours ago

TLE from 14 hours ago
0 COSMOS 2256
1 22691U 93038E   25258.80741671  .00000038  00000-0  15233-3 0  9997
2 22691  82.5783  27.3577 0006182 245.4710 234.2914 12.63937938487157
Epoch: 2025-09-15T19:22Z
TLE epoch observation values (Epoch: 2025-09-15T19:22:40.803Z)
Latitude
59.55298°
Longitude
-91.05844°
Altitude
1,419.607 km
Speed
7.155 km/s
True Right ascension
12h 58m 28s
True Declination
59° 24' 55"
Sunlit
Object was in daylight at epoch
Visualization orbit readout
Latitude
Unknown
Longitude
Unknown
Altitude
Unknown
Speed
Unknown
Apparent Right ascension
Unknown
Apparent Declination
Unknown
Sunlit
N/A
Visualization observer readout
Local Sidereal Time
02:33:34
Azimuth
Unknown
Elevation
Unknown
Doppler factor
Unknown
Orbital elements
Apogee altitude
1,408.862 km
Perigee altitude
1,399.24 km
Semi-major axis
7,782.188 km
Eccentricity
0.00062
Inclination
82.5783°
RAAN
27.3577°
Arg. of periapsis
245.471°
True anomaly
234.2339°
Mean anomaly
234.2914°
Eccentric anomaly
234.26265°
Mean motion
3.16148 °/min
Orbital period
113.87 mins
BSTAR
0.00015233
Loading maneuver chart data...
Computing Atmospheric mass density...
Loading historical data...
Loading historical data...
Loading historical data...
Loading historical data...
Loading historical data...
Loading historical data...
Loading historical data...

Documentation

Showing up to 5 results
|